Weather in Bechencha

Russia / Sakha (Yakutia) Republic     60°57′40″N   115°28′07″E
temp.,
°C
wind,
m/s
gust,
m/s
humid.,
%
clouds,
%
prec.,
mm/h
press.,
hPa
HPBL,
m
7 march, sun
sun700:00−13ssw229797 0.2 101430
03:00−13sw239799 0.4 101381
06:00−12ssw239796 0.2 101382
09:00−11sw3109698 0.4 1013353
12:00−7sw488899 0.1 1010597
15:00−5ssw378599 0.1 1007731
18:00−6s3892100 0.3 1004738
21:00−7s21097100 1.3 1002533
8 march, mon
mon800:00−5wsw41188100 0.3 1000734
03:00−7wsw31095100 0.4 1000415
06:00−8sw399699 0.2 999431
09:00−10sw3896100 0.3 1000282
12:00−7wsw4992100 0.4 1001649
15:00−6w61083100 0.8 10021319
18:00−8w61286100 0.3 10061172
21:00−9w51286100 0.3 1009989
9 march, tue
tue900:00−10w51191100 0.1 1012768
03:00−11w51191100 0.3 1015617
06:00−13wsw41193100 0.1 1017502
09:00−15sw31195100 0.1 1018409
12:00−10sw4108798 0.0 1015680
15:00−8s498099 0.0 1009674
18:00−7s41180100 0.0 10041071
21:00−8ssw31396100 0.6 10021104
10 march, wed
wed1000:00−6sw51594100 0.4 9991082
03:00−9w61381100 1.6 10021129
06:00−12w71584100 0.1 10061330
09:00−13w71585100 0.1 10091402
12:00−12w81480100 0.1 10111386
15:00−12w81479100 0.1 10131560
18:00−12w61479100 0.1 10161566
21:00−14w41388100 0.1 10181231
11 march, thu
thu1100:00−14w41391100 0.0 10201178
03:00−14wsw31194100 0.1 1021565
06:00−17wsw239679 0.0 102276
09:00−16s229785 0.1 102257
12:00−10s259087 0.0 1019431
15:00−6s489293 0.3 1016727
18:00−5sse4988100 0.3 1011664
21:00−7sse31090100 0.3 1007254